Total_Precipitation_Accumulation
0.00 0.00 0.00 0.00 0.00 0.00 0.00 0.00 0.00 0.00 0.00 0.00 0.03 0.00 0.00 0.03 0.03 0.05 0.02 0.00 0.00 0.00 0.00 0.00 0.00 0.00 0.00 0.00 0.00 0.00 0.00 0.00 0.00 0.00 0.00 0.00 0.00 0.00 0.00 0.00 0.00 0.00 0.00 0.00 0.00 0.00 0.00 0.00 0.00 0.00 0.00 0.00 0.00 0.01 0.01 0.00 0.00 0.00 0.00 0.00 0.00 0.01 0.00 0.01 0.02 0.01 0.01 0.00 0.00 0.00 0.00 0.00 0.00 0.00 0.00 0.00 0.01 0.01 0.00 0.01 0.01 0.01 0.01 0.02 0.01
0.00 0.00 0.00 0.00 0.00 0.00 0.00 0.00 0.00 0.00 0.00 0.00 0.00 0.00 0.00 0.04 0.01 0.00 0.00 0.01 0.00 0.00 0.00 0.00 0.01 0.00 0.00 0.00 0.01 0.00 0.00 0.00 0.00 0.00 0.00 0.00 0.00 0.00 0.00 0.00 0.00 0.00 0.00 0.00 0.00 0.00 0.00 0.00 0.00 0.00 0.00 0.00 0.03 0.01 0.00 0.00 0.00 0.00 0.00 0.00 0.01 0.01 0.00 0.00 0.01 0.02 0.01 0.01 0.01 0.00 0.00 0.00 0.00 0.00 0.00 0.00 0.02 0.01 0.01 0.01 0.00 0.00 0.00 0.00 0.02
0.00 0.00 0.00 0.00 0.00 0.00 0.00 0.00 0.00 0.00 0.00 0.00 0.02 0.02 0.00 0.00 0.00 0.00 0.01 0.05 0.02 0.02 0.02 0.02 0.01 0.00 0.01 0.01 0.00 0.00 0.00 0.00 0.00 0.00 0.00 0.00 0.00 0.00 0.00 0.00 0.00 0.00 0.00 0.00 0.00 0.00 0.00 0.00 0.00 0.00 0.00 0.00 0.00 0.00 0.00 0.00 0.00 0.00 0.00 0.00 0.00 0.00 0.01 0.00 0.01 0.03 0.02 0.00 0.00 0.00 0.00 0.01 0.00 0.01 0.00 0.00 0.00 0.01 0.01 0.02 0.04 0.02 0.01 0.00 0.00
0.01 0.00 0.00 0.00 0.00 0.00 0.00 0.00 0.00 0.00 0.00 0.00 0.00 0.00 0.00 0.00 0.00 0.01 0.00 0.01 0.01 0.02 0.02 0.02 0.02 0.03 0.03 0.02 0.02 0.02 0.02 0.01 0.00 0.00 0.00 0.00 0.00 0.00 0.00 0.00 0.00 0.00 0.00 0.00 0.00 0.00 0.00 0.00 0.00 0.00 0.00 0.00 0.00 0.00 0.00 0.00 0.00 0.01 0.00 0.00 0.01 0.01 0.01 0.01 0.03 0.03 0.04 0.01 0.00 0.00 0.00 0.00 0.01 0.00 0.00 0.00 0.01 0.01 0.02 0.01 0.00 0.00 0.00 0.00 0.00
0.00 0.00 0.00 0.00 0.00 0.00 0.00 0.00 0.01 0.01 0.01 0.00 0.00 0.00 0.00 0.00 0.00 0.00 0.00 0.00 0.00 0.03 0.05 0.06 0.05 0.02 0.01 0.02 0.04 0.05 0.03 0.01 0.00 0.00 0.00 0.00 0.00 0.00 0.00 0.00 0.00 0.00 0.00 0.00 0.00 0.00 0.00 0.00 0.00 0.00 0.00 0.00 0.00 0.00 0.00 0.00 0.02 0.03 0.01 0.02 0.01 0.00 0.02 0.05 0.05 0.03 0.02 0.04 0.01 0.01 0.00 0.00 0.00 0.00 0.00 0.01 0.02 0.00 0.00 0.00 0.00 0.00 0.00 0.01 0.02
0.04 0.09 0.04 0.02 0.00 0.00 0.00 0.01 0.01 0.01 0.00 0.00 0.00 0.00 0.00 0.00 0.00 0.00 0.01 0.03 0.05 0.07 0.07 0.04 0.01 0.00 0.01 0.02 0.03 0.03 0.01 0.00 0.00 0.00 0.00 0.00 0.00 0.00 0.00 0.00 0.00 0.00 0.00 0.00 0.00 0.00 0.00 0.00 0.00 0.00 0.00 0.00 0.00 0.00 0.00 0.01 0.00 0.00 0.00 0.05 0.04 0.08 0.07 0.04 0.02 0.02 0.04 0.03 0.04 0.06 0.03 0.03 0.03 0.01 0.01 0.01 0.01 0.02 0.02 0.01 0.00 0.01 0.01 0.01 0.01
0.00 0.00 0.04 0.07 0.07 0.02 0.01 0.00 0.00 0.00 0.02 0.03 0.19 0.01 0.01 0.00 0.00 0.01 0.03 0.02 0.01 0.02 0.01 0.00 0.00 0.00 0.01 0.00 0.00 0.01 0.00 0.00 0.00 0.00 0.00 0.01 0.00 0.00 0.00 0.00 0.00 0.00 0.00 0.01 0.01 0.00 0.01 0.00 0.00 0.01 0.00 0.01 0.00 0.00 0.01 0.01 0.01 0.01 0.01 0.07 0.04 0.03 0.01 0.02 0.01 0.01 0.06 0.04 0.01 0.01 0.05 0.01 0.01 0.06 0.01 0.00 0.01 0.00 0.02 0.02 0.02 0.02 0.01 0.01 0.02
0.00 0.00 0.01 0.00 0.00 0.01 0.00 0.00 0.00 0.00 0.00 0.00 0.00 0.00 0.00 0.00 0.00 0.02 0.02 0.01 0.00 0.00 0.00 0.00 0.00 0.00 0.00 0.00 0.00 0.00 0.00 0.00 0.00 0.00 0.00 0.00 0.00 0.00 0.00 0.00 0.00 0.00 0.00 0.00 0.00 0.00 0.00 0.00 0.00 0.00 0.00 0.01 0.01 0.01 0.01 0.07 0.05 0.04 0.01 0.01 0.01 0.00 0.01 0.00 0.00 0.01 0.01 0.01 0.02 0.03 0.01 0.01 0.01 0.02 0.01 0.02 0.00 0.02 0.01 0.01 0.02 0.01 0.03 0.08 0.04
0.01 0.02 0.01 0.02 0.01 0.01 0.01 0.00 0.00 0.00 0.00 0.08 0.18 0.01 0.00 0.00 0.00 0.00 0.01 0.01 0.00 0.00 0.00 0.00 0.00 0.00 0.00 0.00 0.00 0.00 0.00 0.00 0.00 0.00 0.00 0.00 0.00 0.00 0.00 0.00 0.00 0.00 0.00 0.00 0.00 0.01 0.02 0.01 0.01 0.00 0.01 0.00 0.00 0.00 0.00 0.00 0.00 0.01 0.01 0.01 0.01 0.00 0.00 0.00 0.00 0.00 0.01 0.02 0.01 0.01 0.01 0.02 0.02 0.03 0.02 0.01 0.05 0.06 0.05 0.01 0.01 0.01 0.01 0.03 0.07
0.00 0.00 0.01 0.01 0.00 0.04 0.00 0.00 0.00 0.00 0.00 0.00 0.00 0.00 0.00 0.00 0.00 0.00 0.00 0.00 0.00 0.00 0.00 0.00 0.00 0.00 0.00 0.00 0.00 0.00 0.00 0.00 0.00 0.00 0.00 0.00 0.00 0.02 0.00 0.00 0.00 0.00 0.01 0.01 0.03 0.04 0.02 0.02 0.01 0.00 0.00 0.00 0.00 0.03 0.01 0.01 0.00 0.00 0.01 0.00 0.01 0.01 0.00 0.00 0.00 0.01 0.00 0.01 0.01 0.01 0.03 0.04 0.03 0.02 0.03 0.03 0.02 0.03 0.05 0.02 0.04 0.08 0.02 0.02 0.03
0.00 0.00 0.00 0.00 0.01 0.00 0.00 0.00 0.00 0.00 0.00 0.00 0.00 0.00 0.00 0.00 0.00 0.00 0.00 0.00 0.00 0.00 0.00 0.00 0.01 0.01 0.00 0.00 0.00 0.00 0.00 0.00 0.00 0.00 0.00 0.00 0.04 0.02 0.03 0.02 0.01 0.00 0.03 0.07 0.13 0.02 0.02 0.00 0.01 0.02 0.00 0.00 0.01 0.02 0.01 0.00 0.00 0.00 0.00 0.00 0.00 0.01 0.00 0.00 0.00 0.01 0.02 0.01 0.03 0.02 0.03 0.02 0.02 0.02 0.03 0.03 0.04 0.07 0.04 0.02 0.03 0.05 0.06 0.06 0.05
0.01 0.01 0.01 0.00 0.00 0.00 0.00 0.00 0.00 0.00 0.00 0.00 0.00 0.00 0.00 0.00 0.00 0.00 0.00 0.00 0.00 0.00 0.01 0.03 0.02 0.00 0.01 0.00 0.02 0.01 0.00 0.00 0.00 0.00 0.00 0.02 0.02 0.08 0.07 0.01 0.09 0.05 0.13 0.10 0.03 0.01 0.01 0.03 0.02 0.01 0.04 0.03 0.01 0.02 0.02 0.00 0.00 0.00 0.00 0.00 0.00 0.00 0.00 0.01 0.02 0.02 0.02 0.04 0.04 0.04 0.02 0.01 0.03 0.02 0.06 0.05 0.05 0.03 0.02 0.05 0.03 0.06 0.09 0.08 0.05
0.01 0.00 0.01 0.00 0.00 0.00 0.00 0.00 0.00 0.00 0.00 0.00 0.00 0.00 0.00 0.00 0.00 0.00 0.00 0.00 0.00 0.00 0.00 0.00 0.00 0.00 0.00 0.00 0.00 0.02 0.01 0.00 0.00 0.00 0.00 0.04 0.10 0.16 0.37 0.54 0.28 0.22 0.03 0.06 0.18 0.03 0.03 0.03 0.03 0.03 0.03 0.01 0.03 0.03 0.04 0.02 0.01 0.01 0.02 0.02 0.03 0.04 0.03 0.03 0.03 0.07 0.07 0.06 0.05 0.02 0.02 0.02 0.03 0.03 0.03 0.02 0.02 0.05 0.06 0.08 0.06 0.08 0.06 0.06 0.04
0.30 0.09 0.01 0.00 0.00 0.00 0.00 0.00 0.00 0.00 0.00 0.00 0.00 0.00 0.00 0.00 0.00 0.00 0.00 0.00 0.00 0.00 0.00 0.00 0.00 0.00 0.00 0.00 0.00 0.00 0.00 0.00 0.00 0.02 0.06 0.25 0.26 0.18 2.18 1.18 0.34 0.05 0.05 0.06 0.02 0.03 0.05 0.04 0.04 0.03 0.06 0.08 0.11 0.08 0.09 0.05 0.03 0.05 0.08 0.11 0.07 0.02 0.02 0.02 0.04 0.07 0.06 0.03 0.04 0.06 0.03 0.02 0.03 0.03 0.03 0.05 0.07 0.06 0.04 0.06 0.07 0.06 0.04 0.04 0.02
0.35 0.11 0.00 0.00 0.00 0.00 0.00 0.00 0.00 0.00 0.00 0.00 0.00 0.00 0.00 0.00 0.00 0.00 0.00 0.00 0.00 0.00 0.01 0.03 0.00 0.00 0.00 0.03 0.00 0.00 0.00 0.00 0.00 0.00 0.02 0.34 0.08 0.22 1.62 2.35 0.54 0.19 0.18 0.05 0.02 0.01 0.01 0.02 0.05 0.18 0.21 0.38 0.18 0.09 0.12 0.09 0.07 0.03 0.04 0.01 0.02 0.04 0.06 0.04 0.05 0.05 0.03 0.02 0.04 0.06 0.02 0.02 0.02 0.02 0.04 0.01 0.02 0.12 0.07 0.04 0.03 0.02 0.01 0.01 0.01
0.00 0.00 0.00 0.00 0.00 0.00 0.00 0.00 0.00 0.00 0.00 0.00 0.00 0.00 0.00 0.00 0.00 0.00 0.00 0.00 0.12 0.31 0.00 0.00 0.00 0.02 0.00 0.00 0.01 0.01 0.00 0.00 0.00 0.00 0.09 0.09 0.14 0.37 0.59 1.68 0.45 0.21 0.41 0.61 0.46 0.13 0.06 0.11 0.16 0.21 0.15 0.10 0.12 0.04 0.06 0.05 0.05 0.03 0.12 0.06 0.05 0.04 0.02 0.01 0.00 0.01 0.02 0.05 0.02 0.02 0.02 0.02 0.00 0.01 0.04 0.03 0.03 0.01 0.01 0.01 0.01 0.02 0.06 0.03 0.04
0.01 0.00 0.00 0.00 0.00 0.00 0.00 0.00 0.00 0.00 0.00 0.00 0.00 0.00 0.00 0.00 0.00 0.00 0.02 0.16 0.04 0.03 0.00 0.00 0.00 0.00 0.00 0.00 0.00 0.01 0.00 0.00 0.00 0.00 0.00 0.00 0.02 0.21 1.33 0.21 0.41 0.68 0.45 0.46 0.30 0.34 0.29 0.18 0.12 0.10 0.09 0.04 0.04 0.04 0.04 0.05 0.07 0.06 0.03 0.02 0.01 0.05 0.02 0.06 0.01 0.01 0.00 0.00 0.00 0.00 0.00 0.00 0.00 0.00 0.00 0.00 0.01 0.04 0.08 0.06 0.05 0.11 0.11 0.15 0.05
0.00 0.01 0.01 0.00 0.00 0.00 0.00 0.00 0.00 0.00 0.00 0.00 0.00 0.00 0.00 0.00 0.00 0.01 0.01 0.01 0.01 0.00 0.01 0.02 0.01 0.00 0.01 0.01 0.01 0.00 0.00 0.00 0.00 0.00 0.00 0.00 0.38 0.97 0.09 0.08 0.13 0.45 1.36 0.86 0.56 0.40 0.18 0.16 0.07 0.03 0.02 0.02 0.12 0.02 0.04 0.04 0.02 0.00 0.00 0.01 0.03 0.02 0.02 0.01 0.02 0.01 0.01 0.00 0.00 0.00 0.00 0.00 0.00 0.00 0.00 0.00 0.00 0.02 0.02 0.10 0.04 0.41 0.19 0.13 0.10
0.00 0.00 0.01 0.00 0.00 0.00 0.00 0.00 0.00 0.00 0.00 0.00 0.00 0.00 0.00 0.00 0.00 0.00 0.00 0.00 0.00 0.00 0.02 0.01 0.01 0.01 0.02 0.03 0.01 0.01 0.04 0.03 0.00 0.00 0.00 0.01 0.47 0.85 0.90 0.12 0.08 0.09 0.19 0.16 0.06 0.07 0.04 0.02 0.02 0.01 0.01 0.01 0.01 0.00 0.00 0.02 0.01 0.00 0.02 0.02 0.03 0.01 0.01 0.03 0.05 0.06 0.06 0.01 0.04 0.02 0.01 0.00 0.01 0.01 0.01 0.00 0.00 0.00 0.08 0.04 0.05 0.11 0.14 0.06 0.30
0.00 0.00 0.00 0.00 0.00 0.00 0.00 0.00 0.00 0.00 0.00 0.00 0.00 0.00 0.00 0.00 0.00 0.00 0.00 0.00 0.00 0.02 0.03 0.01 0.01 0.01 0.02 0.01 0.01 0.01 0.02 0.05 0.01 0.00 0.00 0.01 0.03 0.64 1.32 0.50 0.18 0.08 0.03 0.01 0.02 0.02 0.03 0.03 0.02 0.01 0.01 0.01 0.01 0.05 0.03 0.01 0.01 0.02 0.06 0.02 0.01 0.00 0.20 0.03 0.01 0.01 0.02 0.00 0.00 0.00 0.00 0.01 0.01 0.01 0.03 0.04 0.04 0.01 0.01 0.03 0.03 0.04 0.14 0.36 0.48
0.00 0.00 0.00 0.00 0.00 0.00 0.00 0.00 0.00 0.00 0.00 0.00 0.00 0.00 0.00 0.00 0.00 0.00 0.00 0.00 0.01 0.00 0.01 0.01 0.00 0.00 0.00 0.01 0.01 0.02 0.01 0.03 0.04 0.00 0.00 0.01 0.24 0.64 0.18 1.19 0.90 0.33 0.15 0.17 0.05 0.03 0.03 0.14 0.02 0.01 0.01 0.00 0.00 0.00 0.00 0.00 0.00 0.04 0.11 0.46 0.70 0.44 0.52 0.17 0.05 0.02 0.01 0.00 0.01 0.00 0.00 0.00 0.00 0.03 0.03 0.04 0.02 0.00 0.00 0.00 0.02 0.07 0.12 0.12 0.54
0.00 0.00 0.00 0.00 0.00 0.00 0.00 0.00 0.00 0.00 0.00 0.00 0.00 0.00 0.00 0.00 0.00 0.00 0.00 0.02 0.04 0.02 0.02 0.01 0.00 0.00 0.00 0.00 0.01 0.01 0.00 0.00 0.02 0.01 0.01 0.02 0.08 0.11 0.65 0.67 0.03 0.03 0.05 0.08 0.11 0.15 0.02 0.09 0.02 0.00 0.00 0.00 0.00 0.00 0.00 0.00 0.01 0.07 0.17 1.43 1.61 1.15 1.11 0.46 0.31 0.07 0.03 0.01 0.01 0.00 0.01 0.01 0.01 0.01 0.00 0.01 0.00 0.00 0.00 0.00 0.00 0.00 0.02 0.39 0.46
0.00 0.00 0.00 0.00 0.00 0.00 0.00 0.00 0.00 0.01 0.00 0.00 0.02 0.02 0.00 0.01 0.01 0.02 0.01 0.02 0.01 0.01 0.01 0.01 0.00 0.00 0.27 0.41 0.00 0.01 0.01 0.01 0.01 0.04 0.04 0.03 0.10 0.12 0.42 0.38 0.02 0.02 0.08 0.05 0.05 0.07 0.08 0.03 0.01 0.00 0.00 0.00 0.01 0.01 0.01 0.01 0.02 0.02 0.30 1.06 3.34 1.97 1.14 0.77 0.34 0.15 0.08 0.03 0.03 0.02 0.01 0.01 0.00 0.00 0.00 0.00 0.00 0.00 0.00 0.00 0.00 0.04 0.25 0.31 0.23
0.00 0.00 0.00 0.00 0.00 0.00 0.00 0.01 0.00 0.00 0.00 0.00 0.01 0.01 0.02 0.00 0.00 0.03 0.07 0.22 0.57 0.67 0.69 0.76 0.71 0.54 0.01 0.01 0.02 0.03 0.18 0.51 0.79 0.11 1.43 1.11 0.16 0.09 0.02 0.02 0.07 0.03 0.05 0.12 0.16 0.18 0.21 0.02 0.00 0.03 0.04 0.07 0.05 0.04 0.03 0.04 0.07 0.05 0.07 0.16 1.59 2.94 1.22 0.86 0.13 0.38 0.59 0.04 0.04 0.03 0.02 0.01 0.00 0.00 0.01 0.01 0.00 0.00 0.04 0.05 0.10 0.20 0.16 0.16 0.15
0.00 0.01 0.01 0.00 0.00 0.00 0.00 0.01 0.01 0.03 0.02 0.01 0.01 0.01 0.00 0.16 0.38 0.50 0.63 0.55 0.35 0.10 0.13 0.24 0.28 0.19 0.21 0.17 0.11 0.17 0.39 0.52 0.47 0.23 0.31 0.15 0.08 0.09 0.02 0.03 0.23 0.13 0.04 0.08 0.05 0.10 0.04 0.04 0.01 0.09 0.09 0.11 0.10 0.02 0.06 0.04 0.02 0.05 0.05 0.04 1.10 3.02 0.55 0.17 0.09 0.80 0.19 0.08 0.05 0.03 0.01 0.01 0.02 0.16 0.10 0.28 0.07 0.03 0.11 0.33 0.47 0.29 0.18 0.28 0.32
0.81 1.03 0.81 0.76 0.58 0.31 0.15 0.13 0.22 0.35 0.41 0.52 0.66 0.74 0.77 0.76 0.66 0.52 0.34 0.43 0.39 0.40 0.38 0.15 0.19 0.24 0.17 0.18 0.30 0.42 0.36 0.49 0.42 0.27 0.28 0.29 0.16 0.08 0.05 0.05 0.15 0.15 0.13 0.06 0.03 0.02 0.01 0.01 0.01 0.01 0.04 0.06 0.06 0.07 0.07 0.06 0.03 0.04 0.02 0.06 0.38 0.32 0.13 0.14 0.29 0.32 0.10 0.07 0.03 0.02 0.02 0.02 0.40 0.57 0.60 0.34 0.39 0.19 0.21 0.30 0.34 0.41 0.54 0.48 0.31
1.53 1.54 1.37 1.40 1.41 1.09 0.99 1.00 0.94 0.77 0.65 0.61 0.59 0.45 0.38 0.52 0.40 0.46 0.39 0.35 0.28 0.20 0.16 0.22 0.18 0.17 0.22 0.24 0.37 0.27 0.25 0.21 0.19 0.23 0.15 0.06 0.15 0.14 0.17 0.21 0.20 0.30 0.14 0.05 0.10 0.24 0.19 0.09 0.10 0.04 0.03 0.04 0.04 0.03 0.02 0.03 0.07 0.07 0.09 0.10 0.14 0.12 0.08 0.06 0.07 0.21 0.04 0.04 0.04 0.04 0.06 0.24 0.87 0.97 0.97 0.49 0.56 0.47 0.35 0.41 0.44 0.39 0.31 0.27 0.29
0.51 0.35 0.37 0.43 0.40 0.37 0.33 0.24 0.35 0.44 0.50 0.37 0.35 0.18 0.12 0.15 0.19 0.12 0.07 0.04 0.12 0.17 0.13 0.09 0.11 0.16 0.19 0.40 0.42 0.36 0.29 0.25 0.27 0.42 0.36 0.22 0.15 0.12 0.48 0.68 1.28 1.13 0.35 0.17 0.20 0.20 0.42 1.05 1.45 1.55 1.42 0.28 0.16 0.21 0.25 0.20 0.28 0.16 0.19 0.20 0.12 0.17 0.12 0.10 0.12 0.18 0.13 0.14 0.17 0.22 0.47 0.97 1.66 1.50 0.65 0.32 0.21 0.38 0.41 0.40 0.40 0.49 0.38 0.44 0.53
0.73 0.40 0.28 0.23 0.08 0.10 0.19 0.42 0.40 0.33 0.33 0.21 0.10 0.18 0.06 0.04 0.02 0.09 0.05 0.06 0.11 0.22 0.35 0.39 0.44 0.57 0.68 0.98 1.34 1.50 1.47 1.28 0.90 1.08 2.17 2.47 2.43 2.32 2.01 1.54 1.14 0.94 0.87 0.89 1.55 1.81 1.71 1.37 1.63 0.97 0.63 0.29 0.33 0.24 0.33 0.28 0.23 0.21 0.17 0.18 0.14 0.12 0.16 0.22 0.20 0.19 0.19 0.47 0.87 0.77 1.08 1.72 1.21 0.90 0.72 0.65 0.59 0.37 0.31 0.38 0.24 0.46 0.41 0.66 0.35
0.98 1.03 0.67 0.63 0.68 0.69 0.49 0.38 0.23 0.23 0.26 0.10 0.12 0.16 0.09 0.10 0.07 0.13 0.22 0.13 0.23 0.34 0.36 0.71 0.65 0.61 0.62 0.59 0.74 0.56 0.67 0.57 1.12 1.68 1.45 1.26 0.76 0.56 0.68 0.73 0.87 1.43 2.08 2.25 1.87 2.17 1.64 1.35 0.60 0.43 0.33 0.30 0.38 0.35 0.44 0.34 0.31 0.37 0.30 0.29 0.23 0.30 0.19 0.26 0.31 0.40 0.50 0.52 0.69 1.13 1.40 1.62 1.03 0.62 0.40 0.36 0.34 0.27 0.17 0.26 0.46 0.47 0.74 0.40 0.37
0.77 0.89 1.57 1.46 1.22 1.14 0.92 0.87 1.06 1.03 1.10 1.10 0.56 0.42 0.31 0.33 0.25 0.32 0.18 0.22 0.11 0.06 0.09 0.05 0.25 0.36 0.69 1.02 0.88 1.01 1.00 0.91 0.38 0.60 0.29 0.11 0.23 0.23 0.38 0.73 1.20 1.11 1.07 1.17 1.47 1.88 1.53 0.61 0.40 0.35 0.46 0.89 0.94 0.52 0.32 0.30 0.29 0.31 0.24 0.22 0.16 0.20 0.42 0.44 0.57 0.55 0.77 1.10 1.40 1.46 1.42 0.82 0.59 0.59 0.65 0.40 0.28 0.26 0.49 0.56 0.54 0.51 0.46 0.75 0.82
0.53 0.51 0.55 0.65 0.89 0.83 1.04 1.38 1.67 1.60 1.39 1.62 1.47 1.35 1.36 1.10 0.79 0.62 0.68 0.86 0.81 0.66 0.61 0.84 0.78 0.91 0.81 0.80 0.68 0.77 0.30 0.14 0.12 0.39 0.47 0.43 1.33 1.66 1.91 1.69 1.22 1.02 0.46 0.39 0.64 0.73 0.69 0.61 0.43 0.63 0.89 0.82 0.38 0.36 0.52 0.41 0.43 0.44 0.47 1.06 0.89 0.65 0.65 0.93 1.10 0.98 1.43 2.02 1.74 1.43 1.19 1.01 0.80 0.49 0.44 0.65 0.49 0.76 0.82 0.77 0.80 0.96 1.07 1.36 1.21
0.48 0.43 0.48 0.41 0.43 0.39 0.66 0.65 0.79 0.72 1.01 1.36 1.16 1.03 0.87 1.15 1.33 1.54 1.65 1.47 1.50 1.32 1.47 1.46 1.30 0.96 0.73 0.45 0.56 0.51 0.66 0.68 0.54 0.57 0.19 0.34 1.18 1.64 1.34 1.25 1.23 0.69 0.88 1.82 1.35 1.56 1.41 1.25 1.11 1.01 0.65 0.52 0.49 0.44 0.58 0.57 0.65 1.11 1.30 1.25 1.59 1.94 1.51 1.64 2.27 2.03 1.69 1.87 1.30 1.06 0.82 0.78 0.76 1.01 0.83 0.68 0.50 0.51 0.39 0.62 0.62 0.89 1.02 0.84 0.72
0.59 0.61 0.71 0.90 0.70 0.55 0.49 0.49 0.52 0.69 0.72 0.83 0.73 0.56 0.48 0.67 1.40 0.99 0.50 0.71 1.35 1.55 1.46 1.19 1.05 1.03 1.48 1.37 1.16 1.06 1.21 1.40 1.81 2.15 2.21 2.42 1.85 1.03 1.22 0.81 0.63 0.41 0.69 1.30 1.00 0.97 0.96 0.89 0.64 0.42 0.46 0.52 0.61 0.56 0.95 1.17 1.61 1.19 1.82 1.99 1.45 2.08 2.98 3.82 2.21 1.61 1.63 1.39 1.27 1.31 1.25 1.23 1.10 1.01 0.90 0.96 0.95 1.06 0.91 0.76 1.07 1.53 1.13 0.94 0.79
0.84 1.27 1.44 2.13 2.57 2.23 2.51 1.78 0.95 0.91 0.83 1.15 1.06 1.10 1.26 1.40 0.88 0.79 0.65 0.69 0.53 0.49 0.73 0.96 1.10 1.53 1.49 1.85 2.09 1.75 1.28 1.13 1.33 0.68 0.17 0.25 0.84 1.79 3.07 2.71 2.76 2.25 1.75 1.63 1.36 0.91 0.92 0.93 1.19 1.05 1.03 1.01 1.20 1.33 1.62 1.06 1.07 1.96 2.41 1.70 2.34 4.05 3.60 2.95 1.91 1.61 1.43 1.53 1.38 1.04 0.98 0.98 1.11 1.11 0.91 1.01 1.13 1.02 1.00 0.91 1.01 1.22 1.27 1.00 0.92
0.90 0.92 0.74 1.07 1.51 1.18 0.72 1.11 1.55 1.45 1.22 1.13 1.45 2.09 1.64 1.41 1.32 1.13 1.52 1.63 1.28 1.14 0.86 0.92 1.36 2.00 1.34 1.02 1.15 1.49 1.26 1.09 0.62 0.74 0.91 1.03 0.98 0.63 1.60 2.15 1.85 1.83 1.33 1.34 1.52 1.24 1.40 1.41 1.60 2.10 1.99 2.20 1.87 1.97 2.00 2.41 2.74 2.93 2.33 2.14 3.16 3.34 3.26 2.30 2.27 2.42 2.09 2.29 2.11 1.82 1.52 1.29 1.16 1.34 1.23 1.09 1.08 1.02 1.02 1.09 1.10 1.24 1.11 1.08 1.34
0.74 0.53 0.81 0.89 1.00 1.42 1.29 1.04 1.02 1.33 1.10 1.10 1.04 1.26 1.29 1.49 1.73 1.92 1.70 1.65 1.67 1.50 0.98 0.81 0.60 0.78 1.23 1.13 0.66 0.47 0.43 0.82 1.11 0.94 0.78 0.78 1.12 1.31 1.70 1.51 1.59 2.07 2.58 2.53 1.91 1.49 1.30 1.79 2.35 2.10 1.96 1.34 1.04 1.00 1.13 1.60 2.28 2.43 1.91 2.44 1.78 1.99 1.96 1.46 1.39 1.48 1.35 1.31 1.36 1.53 1.51 1.42 1.39 1.34 1.15 1.11 1.20 1.31 1.36 1.51 1.69 1.64 1.60 1.42 1.26
1.06 0.77 0.59 0.74 1.04 1.13 1.10 1.19 1.32 1.23 1.67 1.53 1.24 1.12 1.05 0.94 1.34 1.80 1.53 0.96 1.17 1.55 1.62 1.87 1.62 1.30 1.22 0.80 0.76 0.64 0.62 0.36 0.57 0.50 0.60 1.11 1.98 2.14 2.00 2.24 2.16 2.01 2.00 1.26 1.76 1.50 1.17 1.16 1.25 1.32 1.25 1.29 1.49 1.30 1.47 1.26 1.29 1.69 2.06 1.96 2.78 1.86 1.60 1.72 1.43 1.47 1.24 1.26 1.22 1.33 1.29 1.39 1.69 1.95 2.15 2.24 2.24 2.03 1.90 1.65 1.62 1.63 1.93 2.06 2.02
2.00 1.54 1.35 0.69 0.84 0.95 1.16 1.16 1.03 1.22 1.61 2.08 2.40 2.27 1.92 1.76 1.85 1.49 1.80 2.22 2.30 1.80 1.44 1.10 1.93 1.75 1.68 1.92 2.10 2.48 2.12 1.66 1.04 1.02 1.39 1.79 1.47 1.32 1.61 1.83 1.65 1.70 2.14 2.13 1.46 1.63 1.64 1.49 1.67 1.33 1.28 1.52 1.53 1.29 1.22 1.38 1.46 1.51 2.96 3.70 3.58 2.15 1.57 1.77 1.76 2.20 2.43 2.65 2.09 1.71 1.33 1.26 1.23 1.43 2.01 1.86 2.16 2.36 2.36 2.19 1.82 1.56 1.46 1.57 1.65
2.00 1.70 1.87 2.04 1.37 1.26 1.39 1.65 1.49 1.32 1.44 1.54 2.11 2.10 1.88 1.22 0.86 1.17 1.96 1.59 1.47 1.77 4.64 4.48 2.72 2.19 1.59 1.48 1.66 1.67 2.18 2.51 2.25 1.58 1.38 1.24 1.39 0.98 0.73 1.03 0.83 1.27 1.97 1.24 1.18 0.95 2.06 2.62 2.40 2.56 2.31 1.88 1.78 1.93 2.25 1.75 1.83 1.51 1.89 2.35 1.53 1.66 1.03 1.25 1.42 1.31 1.36 1.59 1.79 1.93 2.18 2.32 2.06 1.69 1.18 1.06 1.16 1.28 1.38 1.40 1.43 1.47 1.34 1.20 1.08
1.80 1.47 1.65 2.30 1.89 2.10 2.18 1.76 1.82 1.32 1.67 1.48 1.11 1.32 0.97 0.78 0.88 0.91 0.98 0.68 1.76 3.42 0.70 0.92 0.91 1.03 0.78 0.73 0.65 0.79 1.23 1.42 1.65 1.49 1.42 1.20 0.96 0.88 1.12 1.16 0.86 1.30 2.69 1.99 2.15 1.19 0.93 0.88 0.97 1.04 1.37 1.62 1.38 1.49 2.00 2.47 1.82 2.54 2.98 1.79 1.43 1.62 1.95 1.71 1.06 0.91 1.04 1.58 1.60 1.39 1.71 1.80 1.78 1.79 1.83 1.68 1.37 1.04 0.85 0.77 0.81 0.86 0.86 0.83 0.76
1.18 2.47 2.46 2.03 1.86 1.73 2.42 2.55 2.36 2.05 1.43 1.25 1.05 0.78 1.07 0.85 0.60 0.52 0.55 0.42 0.53 0.46 0.46 0.37 0.47 0.36 0.37 0.42 0.43 0.43 0.43 0.52 0.61 0.66 0.74 0.90 1.02 0.91 0.95 1.26 1.52 1.52 2.20 2.62 2.23 1.10 0.84 0.98 0.92 1.00 1.04 0.89 1.45 1.63 1.90 1.41 1.44 1.93 2.45 2.46 1.66 1.33 1.66 2.26 2.38 2.08 1.41 1.11 0.92 0.88 0.81 0.67 0.68 0.73 0.83 0.83 0.83 0.73 0.68 0.66 0.66 0.68 0.72 0.76 0.75
2.17 2.78 2.13 2.05 2.29 1.86 1.31 1.65 1.82 1.78 1.83 1.66 1.04 0.95 1.39 1.44 1.60 1.54 0.90 0.82 0.67 0.33 0.30 0.20 0.21 0.29 0.38 0.24 0.23 0.21 0.20 0.18 0.18 0.24 0.33 0.38 0.63 0.96 1.27 1.53 1.41 1.89 2.81 4.05 2.80 2.48 2.05 1.59 1.20 1.16 1.30 1.32 1.15 1.02 1.29 1.93 1.82 1.40 1.73 1.96 1.86 1.73 1.48 1.57 0.95 0.91 0.97 0.76 0.66 0.50 0.55 0.55 0.59 0.67 0.78 0.78 0.80 0.81 0.78 0.70 0.63 0.60 0.59 0.57 0.56
1.50 1.85 2.31 2.12 2.60 2.87 2.56 2.65 2.11 1.85 1.85 2.14 2.42 2.56 2.17 2.07 1.93 1.62 1.21 1.00 1.06 0.81 1.01 1.04 0.91 0.65 0.25 0.20 0.21 0.27 0.21 0.25 0.17 0.19 0.19 0.20 0.24 0.28 0.49 0.48 0.73 1.32 1.39 2.31 2.18 1.99 1.13 1.00 0.86 0.76 0.75 0.84 0.89 0.89 1.01 1.19 1.03 0.80 0.67 0.69 0.80 0.74 0.82 0.83 0.83 0.72 0.99 1.03 0.77 0.64 0.54 0.48 0.46 0.47 0.44 0.45 0.50 0.49 0.48 0.55 0.51 0.47 0.38 0.35 0.33
1.20 1.33 2.04 2.43 1.79 1.23 1.41 1.15 1.51 1.52 1.52 1.75 1.84 1.36 2.00 2.21 1.92 2.07 2.17 1.38 1.14 0.49 0.33 0.48 0.68 0.33 0.19 0.18 0.25 0.22 0.30 0.27 0.38 0.23 0.24 0.28 0.33 0.52 1.01 1.13 0.91 0.66 0.72 1.30 1.81 0.87 0.94 1.39 2.10 1.26 0.71 0.89 1.06 0.72 1.01 0.95 0.69 0.56 0.51 0.59 1.08 1.69 1.65 1.39 1.22 1.11 0.87 0.55 0.41 0.41 0.44 0.45 0.46 0.38 0.39 0.31 0.23 0.27 0.22 0.20 0.22 0.21 0.21 0.19 0.18
0.55 0.63 0.59 1.09 1.98 2.13 1.23 1.08 1.21 1.26 0.94 0.85 0.55 0.79 0.82 0.69 1.27 0.96 1.22 1.71 1.52 1.59 1.36 0.85 0.93 1.15 0.98 0.71 0.57 0.57 0.59 0.40 0.44 0.90 1.25 1.13 0.81 0.83 0.55 0.58 0.26 0.24 0.48 0.88 1.32 0.87 1.62 1.39 1.03 1.01 0.80 0.87 1.07 0.60 0.53 0.57 0.50 0.63 0.82 0.65 0.46 0.29 0.28 0.23 0.27 0.34 0.56 0.49 0.37 0.21 0.13 0.17 0.18 0.19 0.16 0.16 0.15 0.12 0.12 0.13 0.12 0.10 0.09 0.09 0.08
0.48 1.04 0.73 0.71 0.66 1.53 2.70 2.74 2.43 1.78 1.40 0.97 1.15 0.73 1.06 0.98 0.76 1.28 1.47 1.96 1.95 1.91 1.55 1.94 1.68 1.85 2.02 2.23 1.04 0.43 0.68 0.78 1.31 1.63 1.83 1.10 0.74 0.62 0.72 0.45 0.48 0.78 0.60 0.37 0.59 0.46 0.42 1.30 1.21 0.43 0.19 0.16 0.18 0.21 0.31 0.27 0.34 0.43 0.79 0.81 0.58 0.25 0.11 0.26 0.40 0.63 0.52 0.22 0.23 0.13 0.18 0.20 0.18 0.06 0.03 0.01 0.01 0.02 0.02 0.02 0.02 0.03 0.03 0.04 0.03
0.11 0.31 0.69 0.59 0.74 0.48 0.35 0.93 1.92 1.96 2.04 1.71 1.42 1.03 1.27 1.40 1.38 1.80 2.13 1.98 1.61 1.41 1.63 2.12 1.47 1.34 1.27 1.47 1.28 1.03 0.70 0.30 0.43 0.48 0.49 1.01 1.29 1.61 1.83 1.62 1.60 1.29 0.80 0.54 0.43 0.56 0.84 1.03 1.14 0.90 1.28 1.21 0.61 0.43 0.46 0.39 0.48 0.35 0.32 0.16 0.16 0.20 0.39 0.49 0.45 0.17 0.16 0.13 0.12 0.11 0.01 0.05 0.03 0.02 0.02 0.01 0.01 0.01 0.01 0.02 0.01 0.02 0.04 0.09 0.07
0.17 0.10 0.23 0.37 0.44 0.29 0.54 0.47 1.33 1.43 1.63 1.47 1.75 2.55 1.75 1.81 1.65 1.80 1.96 2.23 1.23 1.44 1.34 1.70 1.10 1.34 1.18 1.28 1.05 0.77 1.15 0.92 0.71 0.75 0.75 0.97 0.95 1.18 1.09 0.92 0.77 0.93 1.04 1.13 1.10 0.84 0.64 0.82 0.75 0.47 0.37 0.42 0.67 0.44 0.30 0.34 0.46 0.42 0.53 0.46 0.48 0.53 0.43 0.30 0.22 0.11 0.12 0.05 0.04 0.04 0.02 0.02 0.03 0.01 0.01 0.03 0.03 0.02 0.01 0.04 0.03 0.01 0.01 0.01 0.00
0.51 0.50 0.45 0.21 0.32 0.74 0.42 0.24 0.27 1.12 2.04 2.55 1.68 1.53 1.50 1.36 1.41 1.40 1.08 1.14 1.63 1.89 1.13 1.15 0.88 1.02 1.12 1.02 1.12 1.44 1.69 1.41 1.17 0.93 0.91 0.62 0.80 0.85 0.68 0.53 0.45 0.49 0.64 0.72 0.66 0.55 0.70 0.97 0.94 1.08 1.19 0.74 0.62 0.43 0.42 0.55 0.76 0.55 0.52 0.36 0.20 0.15 0.19 0.11 0.09 0.07 0.01 0.01 0.01 0.02 0.02 0.04 0.06 0.04 0.06 0.02 0.04 0.00 0.04 0.10 0.15 0.05 0.03 0.04 0.02
0.49 0.51 0.72 0.61 0.85 0.76 1.17 1.06 0.99 0.72 0.68 0.96 1.62 1.88 1.93 2.04 2.04 2.07 1.60 1.62 1.83 1.27 1.41 1.26 1.21 1.15 1.08 1.01 0.87 0.77 0.72 0.97 1.11 0.98 0.74 0.79 0.79 0.95 1.03 0.87 0.61 0.41 0.57 0.55 0.46 0.32 0.35 0.49 0.64 0.38 0.47 0.52 0.34 0.13 0.18 0.29 0.25 0.22 0.18 0.10 0.10 0.05 0.06 0.05 0.09 0.05 0.04 0.04 0.08 0.35 0.13 0.09 0.07 0.04 0.04 0.02 0.06 0.08 0.10 0.06 0.07 0.04 0.09 0.04 0.04